Location: Lecco
(45.8566°N, 9.3977°E)
Time: 11:57:37
(UTC+02:00)

S-56A Canister/Altair - Pass Details

Date: 24 July 2019
Orbit: 633 x 2499 km, 38.9° (Epoch: 21 August)

Event Time Altitude Azimuth Distance (km) Brightness Sun altitude
Rises 06:07:59 0° 211° (SSW) 4,492 10.9 1.0°
Reaches altitude 10° 06:11:00 10° 201° (SSW) 3,767 10.6 1.5°
Maximum altitude 06:19:53 34° 142° (SE) 2,913 10.7 2.9°
Drops below altitude 10° 06:31:33 10° 85° (E) 4,992 13.4 4.7°
Sets 06:36:14 0° 78° (ENE) 6,125 14.3 5.5°
